Time,TemperatureF,DewpointF,PressureIn,WindDirection,WindDirectionDegrees,WindSpeedMPH,WindSpeedGustMPH,Humidity,HourlyPrecipIn,Conditions,Clouds,dailyrainin,SoftwareType,DateUTC
2013-04-10 00:00:00,41.6,41.0,29.56,NNE,22,0.0,0.0,95,0.06,,,0.00,Rainwise IP-100,2013-04-10 04:00:00,
2013-04-10 00:01:00,41.6,41.0,29.55,NNE,22,0.0,0.0,95,0.06,,,0.00,Rainwise IP-100,2013-04-10 04:01:00,
2013-04-10 00:06:00,41.5,41.0,29.55,NNE,22,0.0,0.0,95,0.00,,,0.00,Rainwise IP-100,2013-04-10 04:06:00,
2013-04-10 00:11:00,41.4,40.0,29.54,NNE,22,0.0,1.6,95,0.00,,,0.00,Rainwise IP-100,2013-04-10 04:11:00,
2013-04-10 00:16:00,41.4,40.0,29.54,NNE,22,0.0,1.4,95,0.00,,,0.00,Rainwise IP-100,2013-04-10 04:16:00,
2013-04-10 00:21:00,41.3,40.0,29.53,NNE,22,0.0,1.4,95,0.06,,,0.01,Rainwise IP-100,2013-04-10 04:21:00,
2013-04-10 00:27:00,41.3,40.0,29.53,NNE,22,0.0,1.2,96,0.06,,,0.01,Rainwise IP-100,2013-04-10 04:27:00,
2013-04-10 00:32:00,41.2,40.0,29.53,NNE,22,0.0,2.1,96,0.00,,,0.01,Rainwise IP-100,2013-04-10 04:32:00,
2013-04-10 00:37:00,41.1,40.0,29.53,NNE,22,0.0,1.6,96,0.00,,,0.01,Rainwise IP-100,2013-04-10 04:37:00,
2013-04-10 00:42:00,41.0,40.0,29.54,NNE,22,1.9,2.6,96,0.00,,,0.01,Rainwise IP-100,2013-04-10 04:42:00,
2013-04-10 00:47:00,41.0,40.0,29.53,NNE,22,2.1,2.6,96,0.06,,,0.02,Rainwise IP-100,2013-04-10 04:47:00,
2013-04-10 00:52:00,41.0,40.0,29.54,NNE,22,0.0,2.8,96,0.06,,,0.02,Rainwise IP-100,2013-04-10 04:52:00,
2013-04-10 00:58:00,41.0,40.0,29.54,NNE,22,1.4,1.9,96,0.06,,,0.03,Rainwise IP-100,2013-04-10 04:58:00,
2013-04-10 01:03:00,41.0,40.0,29.54,NNE,22,0.0,3.3,97,0.12,,,0.04,Rainwise IP-100,2013-04-10 05:03:00,
2013-04-10 01:08:00,41.0,40.0,29.53,NNE,22,2.1,2.1,97,0.12,,,0.06,Rainwise IP-100,2013-04-10 05:08:00,
2013-04-10 01:13:00,41.0,40.0,29.54,NNE,22,0.0,2.1,97,0.12,,,0.06,Rainwise IP-100,2013-04-10 05:13:00,
2013-04-10 01:18:00,41.0,40.0,29.54,NNE,22,0.0,0.0,97,0.18,,,0.08,Rainwise IP-100,2013-04-10 05:18:00,
2013-04-10 01:23:00,41.0,40.0,29.55,SSW,202,3.0,3.3,97,0.18,,,0.09,Rainwise IP-100,2013-04-10 05:23:00,
2013-04-10 01:28:00,41.0,40.0,29.55,South,180,1.9,4.0,97,0.18,,,0.11,Rainwise IP-100,2013-04-10 05:28:00,
2013-04-10 01:33:00,41.0,40.0,29.54,SSW,202,3.7,4.4,97,0.18,,,0.12,Rainwise IP-100,2013-04-10 05:33:00,
2013-04-10 01:38:00,41.0,40.0,29.54,South,180,1.2,4.7,97,0.12,,,0.13,Rainwise IP-100,2013-04-10 05:38:00,
2013-04-10 01:43:00,41.0,40.0,29.56,SSW,202,4.0,4.0,97,0.18,,,0.15,Rainwise IP-100,2013-04-10 05:43:00,
2013-04-10 01:48:00,41.0,40.0,29.56,SSW,202,2.3,5.4,98,0.18,,,0.16,Rainwise IP-100,2013-04-10 05:48:00,
2013-04-10 01:53:00,41.0,40.0,29.56,SW,225,0.0,5.4,98,0.12,,,0.17,Rainwise IP-100,2013-04-10 05:53:00,
2013-04-10 01:58:00,40.9,40.0,29.56,South,180,2.6,3.7,98,0.12,,,0.19,Rainwise IP-100,2013-04-10 05:58:00,
2013-04-10 02:03:00,40.9,40.0,29.56,SSW,202,3.0,5.6,98,0.18,,,0.20,Rainwise IP-100,2013-04-10 06:03:00,
2013-04-10 02:08:00,40.8,40.0,29.57,SSW,202,5.1,5.1,98,0.24,,,0.22,Rainwise IP-100,2013-04-10 06:08:00,
2013-04-10 02:14:00,40.8,40.0,29.57,SSW,202,5.1,5.4,98,0.24,,,0.25,Rainwise IP-100,2013-04-10 06:14:00,
2013-04-10 02:19:00,40.9,40.0,29.57,SSW,202,5.6,9.1,98,0.30,,,0.27,Rainwise IP-100,2013-04-10 06:19:00,
2013-04-10 02:24:00,41.0,40.0,29.57,SSW,202,3.5,6.8,98,0.24,,,0.29,Rainwise IP-100,2013-04-10 06:24:00,
2013-04-10 02:29:00,41.0,40.0,29.55,SSW,202,0.0,4.7,98,0.24,,,0.31,Rainwise IP-100,2013-04-10 06:29:00,
2013-04-10 02:34:00,41.0,40.0,29.55,SSE,157,0.0,3.7,98,0.18,,,0.32,Rainwise IP-100,2013-04-10 06:34:00,
2013-04-10 02:39:00,41.0,40.0,29.54,East,90,0.0,2.3,98,0.12,,,0.33,Rainwise IP-100,2013-04-10 06:39:00,
2013-04-10 02:44:00,41.0,40.0,29.53,East,90,0.0,0.0,98,0.12,,,0.34,Rainwise IP-100,2013-04-10 06:44:00,
2013-04-10 02:49:00,41.0,40.0,29.53,East,90,0.0,0.0,98,0.12,,,0.36,Rainwise IP-100,2013-04-10 06:49:00,
2013-04-10 02:54:00,41.0,41.0,29.53,NNE,22,4.0,5.1,99,0.12,,,0.36,Rainwise IP-100,2013-04-10 06:54:00,
2013-04-10 02:59:00,41.0,41.0,29.53,North,360,0.0,4.9,99,0.06,,,0.36,Rainwise IP-100,2013-04-10 06:59:00,
2013-04-10 03:04:00,41.0,41.0,29.54,NNW,337,4.0,4.0,99,0.00,,,0.36,Rainwise IP-100,2013-04-10 07:04:00,
2013-04-10 03:09:00,41.0,41.0,29.53,NNW,337,0.0,4.9,99,0.00,,,0.36,Rainwise IP-100,2013-04-10 07:09:00,
2013-04-10 03:14:00,41.0,41.0,29.53,NNW,337,0.0,0.0,99,0.06,,,0.37,Rainwise IP-100,2013-04-10 07:14:00,
2013-04-10 03:19:00,41.0,41.0,29.53,NNE,22,0.0,2.3,99,0.06,,,0.37,Rainwise IP-100,2013-04-10 07:19:00,
2013-04-10 03:24:00,41.0,41.0,29.53,NNE,22,0.0,1.4,99,0.06,,,0.38,Rainwise IP-100,2013-04-10 07:24:00,
2013-04-10 03:30:00,41.0,41.0,29.53,WSW,247,1.9,0.0,99,0.06,,,0.38,Rainwise IP-100,2013-04-10 07:30:00,
2013-04-10 03:35:00,41.0,41.0,29.52,WSW,247,0.0,2.1,99,0.06,,,0.39,Rainwise IP-100,2013-04-10 07:35:00,
2013-04-10 03:40:00,41.0,41.0,29.52,WSW,247,0.0,0.0,99,0.06,,,0.39,Rainwise IP-100,2013-04-10 07:40:00,
2013-04-10 03:45:00,41.0,41.0,29.52,WSW,247,0.0,0.0,99,0.00,,,0.39,Rainwise IP-100,2013-04-10 07:45:00,
2013-04-10 03:50:00,41.0,41.0,29.52,WSW,247,0.0,0.0,99,0.06,,,0.40,Rainwise IP-100,2013-04-10 07:50:00,
2013-04-10 03:55:00,41.0,41.0,29.52,WSW,247,0.0,0.0,99,0.06,,,0.40,Rainwise IP-100,2013-04-10 07:55:00,
2013-04-10 04:00:00,41.0,41.0,29.52,WSW,247,0.0,0.0,99,0.00,,,0.40,Rainwise IP-100,2013-04-10 08:00:00,
2013-04-10 04:05:00,41.0,41.0,29.52,WSW,247,0.0,0.0,99,0.00,,,0.40,Rainwise IP-100,2013-04-10 08:05:00,
2013-04-10 04:10:00,41.0,41.0,29.52,WSW,247,0.0,0.0,99,0.00,,,0.40,Rainwise IP-100,2013-04-10 08:10:00,
2013-04-10 04:15:00,41.0,41.0,29.52,WSW,247,0.0,0.0,99,0.06,,,0.41,Rainwise IP-100,2013-04-10 08:15:00,
2013-04-10 04:20:00,41.0,41.0,29.51,WSW,247,0.0,0.0,99,0.06,,,0.41,Rainwise IP-100,2013-04-10 08:20:00,
2013-04-10 04:25:00,41.0,41.0,29.51,WSW,247,0.0,0.0,99,0.00,,,0.41,Rainwise IP-100,2013-04-10 08:25:00,
2013-04-10 04:30:00,41.0,41.0,29.52,WSW,247,0.0,0.0,99,0.00,,,0.41,Rainwise IP-100,2013-04-10 08:30:00,
2013-04-10 04:35:00,41.0,41.0,29.51,SSW,202,1.2,2.3,99,0.00,,,0.41,Rainwise IP-100,2013-04-10 08:35:00,
2013-04-10 04:40:00,41.0,41.0,29.52,SSW,202,0.0,1.6,99,0.00,,,0.41,Rainwise IP-100,2013-04-10 08:40:00,
2013-04-10 04:45:00,41.0,41.0,29.51,South,180,2.8,2.8,99,0.00,,,0.41,Rainwise IP-100,2013-04-10 08:45:00,
2013-04-10 04:51:00,41.0,41.0,29.51,SSW,202,2.6,4.9,99,0.00,,,0.41,Rainwise IP-100,2013-04-10 08:51:00,
2013-04-10 04:56:00,41.0,41.0,29.51,SSE,157,0.0,4.7,100,0.06,,,0.42,Rainwise IP-100,2013-04-10 08:56:00,
2013-04-10 05:02:00,41.0,41.0,29.51,SSW,202,0.0,0.0,100,0.06,,,0.42,Rainwise IP-100,2013-04-10 09:02:00,
2013-04-10 05:07:00,41.0,41.0,29.51,SSW,202,0.0,1.4,100,0.00,,,0.42,Rainwise IP-100,2013-04-10 09:07:00,
2013-04-10 05:12:00,41.0,41.0,29.51,SSW,202,0.0,0.0,100,0.00,,,0.42,Rainwise IP-100,2013-04-10 09:12:00,
2013-04-10 05:17:00,41.0,41.0,29.50,SSW,202,0.0,0.0,100,0.00,,,0.42,Rainwise IP-100,2013-04-10 09:17:00,
2013-04-10 05:22:00,41.0,41.0,29.50,SSW,202,1.2,1.4,100,0.00,,,0.42,Rainwise IP-100,2013-04-10 09:22:00,
2013-04-10 05:27:00,41.0,41.0,29.50,SSW,202,0.0,1.4,100,0.00,,,0.42,Rainwise IP-100,2013-04-10 09:27:00,
2013-04-10 05:32:00,41.0,41.0,29.50,SSW,202,0.0,0.0,100,0.00,,,0.42,Rainwise IP-100,2013-04-10 09:32:00,
2013-04-10 05:37:00,41.0,41.0,29.50,NW,315,2.1,2.6,100,0.00,,,0.42,Rainwise IP-100,2013-04-10 09:37:00,
2013-04-10 05:42:00,41.0,41.0,29.50,NNW,337,2.3,2.8,100,0.00,,,0.42,Rainwise IP-100,2013-04-10 09:42:00,
2013-04-10 05:48:00,41.0,41.0,29.51,NNW,337,2.3,3.0,100,0.00,,,0.42,Rainwise IP-100,2013-04-10 09:48:00,
2013-04-10 05:53:00,41.0,41.0,29.51,North,360,1.2,4.7,100,0.00,,,0.42,Rainwise IP-100,2013-04-10 09:53:00,
2013-04-10 05:58:00,41.0,41.0,29.50,North,360,0.0,1.9,100,0.00,,,0.42,Rainwise IP-100,2013-04-10 09:58:00,
2013-04-10 06:03:00,41.0,41.0,29.51,North,360,0.0,1.6,100,0.00,,,0.42,Rainwise IP-100,2013-04-10 10:03:00,
2013-04-10 06:08:00,41.0,41.0,29.51,North,360,0.0,1.9,100,0.00,,,0.42,Rainwise IP-100,2013-04-10 10:08:00,
2013-04-10 06:13:00,41.0,41.0,29.51,NE,45,3.5,4.2,100,0.00,,,0.42,Rainwise IP-100,2013-04-10 10:13:00,
2013-04-10 06:19:00,41.0,41.0,29.52,North,360,1.9,4.9,100,0.00,,,0.42,Rainwise IP-100,2013-04-10 10:19:00,
2013-04-10 06:24:00,40.9,41.0,29.52,NNE,22,1.9,3.5,100,0.00,,,0.42,Rainwise IP-100,2013-04-10 10:24:00,
2013-04-10 06:29:00,40.9,41.0,29.53,NNE,22,1.9,3.3,100,0.00,,,0.42,Rainwise IP-100,2013-04-10 10:29:00,
2013-04-10 06:34:00,41.0,41.0,29.53,NE,45,3.0,3.7,100,0.00,,,0.42,Rainwise IP-100,2013-04-10 10:34:00,
2013-04-10 06:39:00,40.9,41.0,29.53,NNE,22,2.1,5.1,100,0.00,,,0.42,Rainwise IP-100,2013-04-10 10:39:00,
2013-04-10 06:44:00,40.9,41.0,29.53,NNE,22,1.4,3.3,100,0.00,,,0.42,Rainwise IP-100,2013-04-10 10:44:00,
2013-04-10 06:49:00,40.9,41.0,29.53,NNE,22,0.0,2.1,100,0.00,,,0.42,Rainwise IP-100,2013-04-10 10:49:00,
2013-04-10 06:54:00,40.9,41.0,29.53,NNE,22,0.0,1.4,100,0.00,,,0.42,Rainwise IP-100,2013-04-10 10:54:00,
2013-04-10 06:59:00,40.9,41.0,29.53,SSW,202,2.3,2.8,100,0.00,,,0.42,Rainwise IP-100,2013-04-10 10:59:00,
2013-04-10 07:04:00,41.0,41.0,29.53,SSW,202,0.0,3.5,100,0.00,,,0.42,Rainwise IP-100,2013-04-10 11:04:00,
2013-04-10 07:10:00,41.0,41.0,29.53,WSW,247,0.0,0.0,100,0.00,,,0.42,Rainwise IP-100,2013-04-10 11:10:00,
2013-04-10 07:15:00,41.0,41.0,29.53,WSW,247,0.0,0.0,100,0.00,,,0.42,Rainwise IP-100,2013-04-10 11:15:00,
2013-04-10 07:20:00,41.0,41.0,29.53,WSW,247,0.0,0.0,100,0.00,,,0.42,Rainwise IP-100,2013-04-10 11:20:00,
2013-04-10 07:25:00,41.1,41.0,29.53,WSW,247,0.0,0.0,100,0.00,,,0.42,Rainwise IP-100,2013-04-10 11:25:00,
2013-04-10 07:30:00,41.1,41.0,29.53,NW,315,1.6,4.0,100,0.00,,,0.42,Rainwise IP-100,2013-04-10 11:30:00,
2013-04-10 07:35:00,41.2,41.0,29.54,NNW,337,2.6,3.0,100,0.00,,,0.42,Rainwise IP-100,2013-04-10 11:35:00,
2013-04-10 07:40:00,41.2,41.0,29.54,NNW,337,0.0,4.0,100,0.00,,,0.42,Rainwise IP-100,2013-04-10 11:40:00,
2013-04-10 07:45:00,41.2,41.0,29.53,NNW,337,0.0,0.0,100,0.00,,,0.42,Rainwise IP-100,2013-04-10 11:45:00,
2013-04-10 07:50:00,41.2,41.0,29.54,NNW,337,0.0,0.0,100,0.00,,,0.42,Rainwise IP-100,2013-04-10 11:50:00,
2013-04-10 07:55:00,41.3,41.0,29.53,NNW,337,0.0,0.0,100,0.00,,,0.42,Rainwise IP-100,2013-04-10 11:55:00,
2013-04-10 08:01:00,41.5,42.0,29.53,NNW,337,0.0,1.4,100,0.00,,,0.42,Rainwise IP-100,2013-04-10 12:01:00,
2013-04-10 08:06:00,41.5,42.0,29.54,NE,45,4.2,5.4,100,0.00,,,0.42,Rainwise IP-100,2013-04-10 12:06:00,
2013-04-10 08:11:00,41.4,41.0,29.54,NE,45,2.8,4.4,100,0.00,,,0.42,Rainwise IP-100,2013-04-10 12:11:00,
2013-04-10 08:17:00,41.3,41.0,29.54,NE,45,0.0,5.4,100,0.00,,,0.42,Rainwise IP-100,2013-04-10 12:17:00,
2013-04-10 08:22:00,41.6,42.0,29.54,NE,45,0.0,2.6,100,0.00,,,0.42,Rainwise IP-100,2013-04-10 12:22:00,
2013-04-10 08:27:00,41.9,42.0,29.54,NE,45,1.2,3.0,100,0.00,,,0.42,Rainwise IP-100,2013-04-10 12:27:00,
2013-04-10 08:32:00,42.0,42.0,29.55,NE,45,0.0,2.6,100,0.00,,,0.42,Rainwise IP-100,2013-04-10 12:32:00,
2013-04-10 08:37:00,42.1,42.0,29.55,NE,45,1.6,2.3,100,0.00,,,0.42,Rainwise IP-100,2013-04-10 12:37:00,
2013-04-10 08:42:00,42.1,42.0,29.55,NE,45,1.6,2.6,100,0.00,,,0.42,Rainwise IP-100,2013-04-10 12:42:00,
2013-04-10 08:47:00,42.0,42.0,29.55,NE,45,0.0,2.1,100,0.00,,,0.42,Rainwise IP-100,2013-04-10 12:47:00,
2013-04-10 08:52:00,42.3,42.0,29.55,NE,45,2.1,2.1,100,0.00,,,0.42,Rainwise IP-100,2013-04-10 12:52:00,
2013-04-10 08:57:00,42.6,43.0,29.55,NNE,22,1.4,3.7,100,0.00,,,0.42,Rainwise IP-100,2013-04-10 12:57:00,
2013-04-10 09:02:00,42.7,43.0,29.55,North,360,3.3,4.4,100,0.00,,,0.42,Rainwise IP-100,2013-04-10 13:02:00,
2013-04-10 09:07:00,42.6,43.0,29.55,NE,45,3.0,4.4,100,0.00,,,0.42,Rainwise IP-100,2013-04-10 13:07:00,
2013-04-10 09:12:00,42.5,43.0,29.55,NE,45,0.0,4.2,100,0.00,,,0.42,Rainwise IP-100,2013-04-10 13:12:00,
2013-04-10 09:18:00,42.6,43.0,29.55,NE,45,1.2,2.3,100,0.00,,,0.42,Rainwise IP-100,2013-04-10 13:18:00,
2013-04-10 09:23:00,42.6,43.0,29.55,NE,45,1.6,2.6,100,0.00,,,0.42,Rainwise IP-100,2013-04-10 13:23:00,
2013-04-10 09:28:00,42.7,43.0,29.55,NE,45,1.2,1.6,100,0.00,,,0.42,Rainwise IP-100,2013-04-10 13:28:00,
2013-04-10 09:33:00,42.9,43.0,29.56,NE,45,0.0,1.2,100,0.00,,,0.42,Rainwise IP-100,2013-04-10 13:33:00,
2013-04-10 09:38:00,43.3,43.0,29.56,NE,45,0.0,0.0,100,0.00,,,0.42,Rainwise IP-100,2013-04-10 13:38:00,
2013-04-10 09:43:00,43.5,44.0,29.56,NE,45,0.0,0.0,100,0.00,,,0.42,Rainwise IP-100,2013-04-10 13:43:00,
2013-04-10 09:48:00,43.7,44.0,29.56,NE,45,0.0,0.0,100,0.00,,,0.42,Rainwise IP-100,2013-04-10 13:48:00,
2013-04-10 09:53:00,44.0,44.0,29.56,NE,45,0.0,1.2,100,0.00,,,0.42,Rainwise IP-100,2013-04-10 13:53:00,
2013-04-10 09:58:00,44.3,44.0,29.56,NNE,22,1.4,2.8,100,0.00,,,0.42,Rainwise IP-100,2013-04-10 13:58:00,
2013-04-10 10:03:00,44.3,44.0,29.57,NNE,22,0.0,2.1,100,0.00,,,0.42,Rainwise IP-100,2013-04-10 14:03:00,
2013-04-10 10:08:00,44.4,44.0,29.57,NNE,22,2.3,2.3,100,0.00,,,0.42,Rainwise IP-100,2013-04-10 14:08:00,
2013-04-10 10:13:00,44.1,44.0,29.57,NNE,22,0.0,3.0,99,0.00,,,0.42,Rainwise IP-100,2013-04-10 14:13:00,
2013-04-10 10:18:00,43.9,44.0,29.57,NNE,22,1.9,2.8,99,0.00,,,0.42,Rainwise IP-100,2013-04-10 14:18:00,
2013-04-10 10:23:00,44.0,44.0,29.57,ENE,67,3.5,3.5,99,0.00,,,0.42,Rainwise IP-100,2013-04-10 14:23:00,
2013-04-10 10:28:00,43.9,43.0,29.57,ENE,67,2.1,3.7,98,0.00,,,0.42,Rainwise IP-100,2013-04-10 14:28:00,
2013-04-10 10:34:00,43.9,43.0,29.57,ENE,67,0.0,2.8,98,0.00,,,0.42,Rainwise IP-100,2013-04-10 14:34:00,
2013-04-10 10:39:00,44.3,43.0,29.56,ENE,67,1.4,2.3,98,0.00,,,0.42,Rainwise IP-100,2013-04-10 14:39:00,
2013-04-10 10:44:00,44.7,44.0,29.56,ENE,67,0.0,2.3,98,0.00,,,0.42,Rainwise IP-100,2013-04-10 14:44:00,
2013-04-10 10:49:00,45.3,44.0,29.56,NNE,22,1.6,3.0,98,0.00,,,0.42,Rainwise IP-100,2013-04-10 14:49:00,
2013-04-10 10:54:00,45.9,45.0,29.57,NNW,337,0.0,2.8,97,0.00,,,0.42,Rainwise IP-100,2013-04-10 14:54:00,
2013-04-10 10:59:00,46.5,46.0,29.57,NNW,337,0.0,1.6,98,0.00,,,0.42,Rainwise IP-100,2013-04-10 14:59:00,
2013-04-10 11:04:00,46.9,46.0,29.57,NNE,22,1.4,2.1,98,0.00,,,0.42,Rainwise IP-100,2013-04-10 15:04:00,
2013-04-10 11:09:00,46.5,46.0,29.56,NE,45,2.6,3.3,98,0.00,,,0.42,Rainwise IP-100,2013-04-10 15:09:00,
2013-04-10 11:14:00,45.7,45.0,29.56,NE,45,4.0,4.4,96,0.00,,,0.42,Rainwise IP-100,2013-04-10 15:14:00,
2013-04-10 11:19:00,45.7,45.0,29.55,NE,45,4.0,5.8,96,0.00,,,0.42,Rainwise IP-100,2013-04-10 15:19:00,
2013-04-10 11:24:00,45.8,45.0,29.55,NE,45,4.4,7.2,96,0.00,,,0.42,Rainwise IP-100,2013-04-10 15:24:00,
2013-04-10 11:29:00,45.9,45.0,29.55,NNE,22,3.5,5.8,96,0.00,,,0.42,Rainwise IP-100,2013-04-10 15:29:00,
2013-04-10 11:34:00,46.2,44.0,29.55,NE,45,3.3,4.7,95,0.00,,,0.42,Rainwise IP-100,2013-04-10 15:34:00,
2013-04-10 11:39:00,46.6,45.0,29.56,North,360,1.4,4.4,94,0.00,,,0.42,Rainwise IP-100,2013-04-10 15:39:00,
2013-04-10 11:44:00,46.8,45.0,29.56,East,90,1.9,4.7,94,0.00,,,0.42,Rainwise IP-100,2013-04-10 15:44:00,
2013-04-10 11:50:00,46.7,45.0,29.55,NNE,22,1.6,4.2,94,0.00,,,0.42,Rainwise IP-100,2013-04-10 15:50:00,
2013-04-10 11:55:00,46.5,45.0,29.55,NE,45,4.7,5.1,94,0.00,,,0.42,Rainwise IP-100,2013-04-10 15:55:00,
2013-04-10 12:00:00,46.7,45.0,29.55,ENE,67,2.3,5.4,94,0.00,,,0.42,Rainwise IP-100,2013-04-10 16:00:00,
2013-04-10 12:05:00,47.1,45.0,29.54,ENE,67,3.3,5.6,94,0.00,,,0.42,Rainwise IP-100,2013-04-10 16:05:00,
2013-04-10 12:10:00,47.3,46.0,29.55,ENE,67,3.7,5.4,93,0.00,,,0.42,Rainwise IP-100,2013-04-10 16:10:00,
2013-04-10 12:15:00,47.2,44.0,29.54,NE,45,2.3,5.6,92,0.00,,,0.42,Rainwise IP-100,2013-04-10 16:15:00,
2013-04-10 12:20:00,47.2,44.0,29.55,NNE,22,2.8,4.2,92,0.00,,,0.42,Rainwise IP-100,2013-04-10 16:20:00,
2013-04-10 12:25:00,47.7,45.0,29.55,ENE,67,4.2,4.4,92,0.00,,,0.42,Rainwise IP-100,2013-04-10 16:25:00,
2013-04-10 12:30:00,47.4,45.0,29.55,NNE,22,4.0,7.7,92,0.00,,,0.42,Rainwise IP-100,2013-04-10 16:30:00,
2013-04-10 12:35:00,47.1,44.0,29.55,ENE,67,2.6,6.3,92,0.00,,,0.42,Rainwise IP-100,2013-04-10 16:35:00,
2013-04-10 12:40:00,47.0,44.0,29.55,NE,45,6.1,6.5,92,0.00,,,0.42,Rainwise IP-100,2013-04-10 16:40:00,
2013-04-10 12:45:00,47.0,44.0,29.55,NE,45,0.0,7.2,92,0.00,,,0.42,Rainwise IP-100,2013-04-10 16:45:00,
2013-04-10 12:50:00,47.4,46.0,29.56,NNW,337,1.2,3.5,93,0.00,,,0.42,Rainwise IP-100,2013-04-10 16:50:00,
2013-04-10 12:55:00,47.6,45.0,29.55,NE,45,5.1,5.1,92,0.00,,,0.42,Rainwise IP-100,2013-04-10 16:55:00,
2013-04-10 13:00:00,47.3,45.0,29.55,ENE,67,5.4,6.1,91,0.00,,,0.42,Rainwise IP-100,2013-04-10 17:00:00,
2013-04-10 13:06:00,47.1,44.0,29.54,NE,45,4.2,7.0,91,0.00,,,0.42,Rainwise IP-100,2013-04-10 17:06:00,
2013-04-10 13:11:00,47.1,44.0,29.54,ENE,67,3.3,6.5,91,0.00,,,0.42,Rainwise IP-100,2013-04-10 17:11:00,
2013-04-10 13:16:00,47.5,45.0,29.54,NNE,22,3.3,6.5,91,0.00,,,0.42,Rainwise IP-100,2013-04-10 17:16:00,
2013-04-10 13:21:00,48.1,46.0,29.54,ENE,67,4.4,4.4,91,0.00,,,0.42,Rainwise IP-100,2013-04-10 17:21:00,
2013-04-10 13:26:00,48.4,46.0,29.55,ENE,67,4.0,7.2,90,0.00,,,0.42,Rainwise IP-100,2013-04-10 17:26:00,
2013-04-10 13:31:00,48.2,45.0,29.56,ENE,67,2.1,4.7,89,0.00,,,0.42,Rainwise IP-100,2013-04-10 17:31:00,
2013-04-10 13:36:00,48.2,45.0,29.56,NNE,22,2.1,4.2,89,0.00,,,0.42,Rainwise IP-100,2013-04-10 17:36:00,
2013-04-10 13:42:00,48.3,45.0,29.56,NE,45,2.6,3.7,89,0.00,,,0.42,Rainwise IP-100,2013-04-10 17:42:00,
2013-04-10 13:47:00,48.3,45.0,29.57,ENE,67,2.1,3.7,88,0.00,,,0.42,Rainwise IP-100,2013-04-10 17:47:00,
2013-04-10 13:52:00,48.4,45.0,29.57,ENE,67,0.0,2.6,88,0.00,,,0.42,Rainwise IP-100,2013-04-10 17:52:00,
2013-04-10 13:57:00,48.6,47.0,29.56,ENE,67,0.0,1.4,90,0.00,,,0.42,Rainwise IP-100,2013-04-10 17:57:00,
2013-04-10 14:02:00,48.8,47.0,29.56,ENE,67,3.0,3.3,91,0.00,,,0.42,Rainwise IP-100,2013-04-10 18:02:00,
2013-04-10 14:07:00,48.7,47.0,29.56,ENE,67,4.2,4.2,91,0.00,,,0.42,Rainwise IP-100,2013-04-10 18:07:00,
2013-04-10 14:12:00,48.5,47.0,29.56,ENE,67,4.0,4.7,90,0.00,,,0.42,Rainwise IP-100,2013-04-10 18:12:00,
2013-04-10 14:17:00,48.5,46.0,29.55,NE,45,5.1,6.1,89,0.00,,,0.42,Rainwise IP-100,2013-04-10 18:17:00,
2013-04-10 14:22:00,48.7,46.0,29.56,ENE,67,2.6,5.8,89,0.00,,,0.42,Rainwise IP-100,2013-04-10 18:22:00,
2013-04-10 14:27:00,48.6,46.0,29.56,ENE,67,3.0,3.7,88,0.00,,,0.42,Rainwise IP-100,2013-04-10 18:27:00,
2013-04-10 14:32:00,48.6,46.0,29.57,ENE,67,1.2,3.7,88,0.00,,,0.42,Rainwise IP-100,2013-04-10 18:32:00,
2013-04-10 14:37:00,48.7,46.0,29.56,ENE,67,2.3,3.5,88,0.00,,,0.42,Rainwise IP-100,2013-04-10 18:37:00,
2013-04-10 14:42:00,48.8,46.0,29.55,ENE,67,2.8,2.8,88,0.00,,,0.42,Rainwise IP-100,2013-04-10 18:42:00,
2013-04-10 14:47:00,48.8,46.0,29.54,ENE,67,1.2,3.3,88,0.00,,,0.42,Rainwise IP-100,2013-04-10 18:47:00,
2013-04-10 14:52:00,48.7,46.0,29.53,ENE,67,0.0,1.6,88,0.00,,,0.42,Rainwise IP-100,2013-04-10 18:52:00,
2013-04-10 14:58:00,48.8,46.0,29.50,ENE,67,1.6,3.5,89,0.00,,,0.42,Rainwise IP-100,2013-04-10 18:58:00,
2013-04-10 15:03:00,48.7,46.0,29.49,North,360,3.3,4.4,89,0.00,,,0.42,Rainwise IP-100,2013-04-10 19:03:00,
2013-04-10 15:08:00,48.9,46.0,29.49,NNE,22,2.8,6.5,89,0.00,,,0.42,Rainwise IP-100,2013-04-10 19:08:00,
2013-04-10 15:13:00,49.2,46.0,29.49,NNE,22,1.9,5.8,89,0.00,,,0.42,Rainwise IP-100,2013-04-10 19:13:00,
2013-04-10 15:18:00,49.3,46.0,29.50,NE,45,3.3,6.5,89,0.00,,,0.42,Rainwise IP-100,2013-04-10 19:18:00,
2013-04-10 15:23:00,49.3,46.0,29.50,NE,45,2.6,5.6,89,0.00,,,0.42,Rainwise IP-100,2013-04-10 19:23:00,
2013-04-10 15:28:00,49.4,46.0,29.49,NE,45,5.1,7.7,89,0.00,,,0.42,Rainwise IP-100,2013-04-10 19:28:00,
2013-04-10 15:33:00,49.6,47.0,29.49,NNE,22,1.9,8.2,88,0.00,,,0.42,Rainwise IP-100,2013-04-10 19:33:00,
2013-04-10 15:38:00,49.6,46.0,29.50,NNE,22,2.8,6.8,87,0.00,,,0.42,Rainwise IP-100,2013-04-10 19:38:00,
2013-04-10 15:43:00,49.3,45.0,29.51,ENE,67,3.0,6.5,87,0.00,,,0.42,Rainwise IP-100,2013-04-10 19:43:00,
2013-04-10 15:48:00,49.4,45.0,29.51,NE,45,1.9,4.4,87,0.00,,,0.42,Rainwise IP-100,2013-04-10 19:48:00,
2013-04-10 15:53:00,49.5,46.0,29.50,ENE,67,2.6,5.4,87,0.00,,,0.42,Rainwise IP-100,2013-04-10 19:53:00,
2013-04-10 15:58:00,49.4,45.0,29.50,ENE,67,3.0,4.9,87,0.00,,,0.42,Rainwise IP-100,2013-04-10 19:58:00,
2013-04-10 16:03:00,49.4,45.0,29.50,ENE,67,4.0,4.7,87,0.00,,,0.42,Rainwise IP-100,2013-04-10 20:03:00,
2013-04-10 16:08:00,49.4,45.0,29.51,NE,45,1.2,5.1,87,0.00,,,0.42,Rainwise IP-100,2013-04-10 20:08:00,
2013-04-10 16:14:00,49.4,45.0,29.51,ENE,67,2.8,3.7,86,0.00,,,0.42,Rainwise IP-100,2013-04-10 20:14:00,
2013-04-10 16:19:00,49.5,46.0,29.50,ENE,67,4.2,5.1,86,0.00,,,0.42,Rainwise IP-100,2013-04-10 20:19:00,
2013-04-10 16:24:00,49.6,46.0,29.50,ENE,67,4.7,4.9,86,0.00,,,0.42,Rainwise IP-100,2013-04-10 20:24:00,
2013-04-10 16:29:00,49.6,46.0,29.49,ENE,67,4.7,5.4,86,0.00,,,0.42,Rainwise IP-100,2013-04-10 20:29:00,
2013-04-10 16:34:00,49.6,46.0,29.50,ENE,67,1.9,5.6,85,0.00,,,0.42,Rainwise IP-100,2013-04-10 20:34:00,
2013-04-10 16:39:00,49.6,46.0,29.49,ENE,67,1.2,4.0,85,0.00,,,0.42,Rainwise IP-100,2013-04-10 20:39:00,
2013-04-10 16:44:00,49.7,46.0,29.51,NNW,337,3.3,4.4,86,0.00,,,0.42,Rainwise IP-100,2013-04-10 20:44:00,
2013-04-10 16:49:00,49.8,46.0,29.50,NE,45,5.1,5.1,86,0.00,,,0.42,Rainwise IP-100,2013-04-10 20:49:00,
2013-04-10 16:54:00,49.5,46.0,29.49,ENE,67,5.6,6.8,85,0.00,,,0.42,Rainwise IP-100,2013-04-10 20:54:00,
2013-04-10 16:59:00,49.3,45.0,29.49,NE,45,1.4,6.3,85,0.00,,,0.42,Rainwise IP-100,2013-04-10 20:59:00,
2013-04-10 17:04:00,49.4,45.0,29.50,ENE,67,0.0,5.4,85,0.00,,,0.42,Rainwise IP-100,2013-04-10 21:04:00,
2013-04-10 17:09:00,49.5,46.0,29.50,ENE,67,1.4,2.8,86,0.00,,,0.42,Rainwise IP-100,2013-04-10 21:09:00,
2013-04-10 17:14:00,49.5,46.0,29.50,ENE,67,1.9,3.5,86,0.00,,,0.42,Rainwise IP-100,2013-04-10 21:14:00,
2013-04-10 17:19:00,49.5,46.0,29.50,ENE,67,0.0,2.6,86,0.00,,,0.42,Rainwise IP-100,2013-04-10 21:19:00,
2013-04-10 17:24:00,49.4,45.0,29.51,North,360,4.0,4.0,86,0.00,,,0.42,Rainwise IP-100,2013-04-10 21:24:00,
2013-04-10 17:30:00,49.3,45.0,29.50,NNE,22,2.3,4.4,86,0.00,,,0.42,Rainwise IP-100,2013-04-10 21:30:00,
2013-04-10 17:35:00,49.2,45.0,29.50,NNE,22,3.3,4.7,86,0.00,,,0.42,Rainwise IP-100,2013-04-10 21:35:00,
2013-04-10 17:40:00,49.1,45.0,29.50,NNE,22,4.0,7.0,87,0.00,,,0.42,Rainwise IP-100,2013-04-10 21:40:00,
2013-04-10 17:45:00,48.8,45.0,29.49,NE,45,4.2,6.8,87,0.00,,,0.42,Rainwise IP-100,2013-04-10 21:45:00,
2013-04-10 17:50:00,48.4,45.0,29.49,NNE,22,3.5,7.0,88,0.00,,,0.42,Rainwise IP-100,2013-04-10 21:50:00,
2013-04-10 17:55:00,48.2,45.0,29.49,NNE,22,2.1,4.2,88,0.00,,,0.42,Rainwise IP-100,2013-04-10 21:55:00,
2013-04-10 18:00:00,48.3,45.0,29.48,ENE,67,2.3,7.5,89,0.00,,,0.42,Rainwise IP-100,2013-04-10 22:00:00,
2013-04-10 18:05:00,48.3,45.0,29.50,NNE,22,1.9,6.1,89,0.00,,,0.42,Rainwise IP-100,2013-04-10 22:05:00,
2013-04-10 18:10:00,48.2,45.0,29.50,NNW,337,2.1,3.5,89,0.00,,,0.42,Rainwise IP-100,2013-04-10 22:10:00,
2013-04-10 18:15:00,48.2,45.0,29.49,NNE,22,2.3,4.7,89,0.00,,,0.42,Rainwise IP-100,2013-04-10 22:15:00,
2013-04-10 18:20:00,48.1,45.0,29.49,ENE,67,3.5,3.5,89,0.00,,,0.42,Rainwise IP-100,2013-04-10 22:20:00,
2013-04-10 18:25:00,48.0,45.0,29.48,NE,45,5.4,5.4,89,0.00,,,0.42,Rainwise IP-100,2013-04-10 22:25:00,
2013-04-10 18:30:00,47.8,46.0,29.48,North,360,2.3,6.1,90,0.00,,,0.42,Rainwise IP-100,2013-04-10 22:30:00,
2013-04-10 18:35:00,47.6,45.0,29.47,ENE,67,6.5,9.8,90,0.00,,,0.42,Rainwise IP-100,2013-04-10 22:35:00,
2013-04-10 18:41:00,47.4,45.0,29.48,NNW,337,4.9,6.8,90,0.00,,,0.42,Rainwise IP-100,2013-04-10 22:41:00,
2013-04-10 18:46:00,47.2,44.0,29.48,NNE,22,6.3,6.8,91,0.00,,,0.42,Rainwise IP-100,2013-04-10 22:46:00,
2013-04-10 18:51:00,47.1,44.0,29.47,NNE,22,2.3,6.3,91,0.00,,,0.42,Rainwise IP-100,2013-04-10 22:51:00,
2013-04-10 18:56:00,46.9,44.0,29.48,NNW,337,1.4,4.2,92,0.00,,,0.42,Rainwise IP-100,2013-04-10 22:56:00,
2013-04-10 19:01:00,46.8,45.0,29.49,NNW,337,3.3,4.0,93,0.00,,,0.42,Rainwise IP-100,2013-04-10 23:01:00,
2013-04-10 19:06:00,46.7,45.0,29.49,WNW,292,3.0,4.7,94,0.00,,,0.42,Rainwise IP-100,2013-04-10 23:06:00,
2013-04-10 19:11:00,46.6,45.0,29.51,WNW,292,4.0,5.1,94,0.00,,,0.42,Rainwise IP-100,2013-04-10 23:11:00,
2013-04-10 19:16:00,46.6,45.0,29.53,NNW,337,2.1,6.1,94,0.06,,,0.43,Rainwise IP-100,2013-04-10 23:16:00,
2013-04-10 19:21:00,46.5,45.0,29.51,NW,315,1.9,9.8,94,0.12,,,0.45,Rainwise IP-100,2013-04-10 23:21:00,
2013-04-10 19:26:00,46.4,44.0,29.49,North,360,0.0,4.2,94,0.24,,,0.47,Rainwise IP-100,2013-04-10 23:26:00,
2013-04-10 19:31:00,46.2,44.0,29.49,North,360,0.0,1.6,95,0.18,,,0.47,Rainwise IP-100,2013-04-10 23:31:00,
2013-04-10 19:36:00,45.9,44.0,29.47,NNE,22,1.6,0.0,95,0.06,,,0.48,Rainwise IP-100,2013-04-10 23:36:00,
2013-04-10 19:41:00,45.7,45.0,29.47,NNW,337,2.6,4.7,96,0.06,,,0.48,Rainwise IP-100,2013-04-10 23:41:00,
2013-04-10 19:46:00,45.5,45.0,29.47,NNW,337,1.2,5.8,96,0.06,,,0.49,Rainwise IP-100,2013-04-10 23:46:00,
2013-04-10 19:52:00,45.5,45.0,29.47,ENE,67,1.2,3.5,97,0.06,,,0.49,Rainwise IP-100,2013-04-10 23:52:00,
2013-04-10 19:57:00,45.5,45.0,29.48,NNE,22,2.6,3.5,97,0.06,,,0.50,Rainwise IP-100,2013-04-10 23:57:00,
2013-04-10 20:02:00,45.5,45.0,29.49,North,360,2.3,4.9,97,0.12,,,0.51,Rainwise IP-100,2013-04-11 00:02:00,
2013-04-10 20:07:00,45.4,44.0,29.48,North,360,4.0,4.0,98,0.12,,,0.52,Rainwise IP-100,2013-04-11 00:07:00,
2013-04-10 20:12:00,45.4,44.0,29.48,NNE,22,1.2,4.4,98,0.06,,,0.52,Rainwise IP-100,2013-04-11 00:12:00,
2013-04-10 20:17:00,45.3,44.0,29.48,NNE,22,2.6,6.1,98,0.06,,,0.53,Rainwise IP-100,2013-04-11 00:17:00,
2013-04-10 20:22:00,45.1,44.0,29.48,NNW,337,0.0,3.7,98,0.06,,,0.53,Rainwise IP-100,2013-04-11 00:22:00,
2013-04-10 20:27:00,45.1,44.0,29.49,NNW,337,1.2,1.6,98,0.06,,,0.54,Rainwise IP-100,2013-04-11 00:27:00,
2013-04-10 20:32:00,45.1,44.0,29.50,NNW,337,0.0,1.2,98,0.06,,,0.54,Rainwise IP-100,2013-04-11 00:32:00,
2013-04-10 20:37:00,45.1,44.0,29.50,NNW,337,0.0,0.0,98,0.06,,,0.55,Rainwise IP-100,2013-04-11 00:37:00,
2013-04-10 20:42:00,45.1,45.0,29.51,NNW,337,1.2,2.6,99,0.12,,,0.56,Rainwise IP-100,2013-04-11 00:42:00,
2013-04-10 20:48:00,45.0,45.0,29.51,NNW,337,0.0,2.1,99,0.06,,,0.56,Rainwise IP-100,2013-04-11 00:48:00,
2013-04-10 20:53:00,45.0,45.0,29.51,NNW,337,0.0,1.2,99,0.06,,,0.57,Rainwise IP-100,2013-04-11 00:53:00,
2013-04-10 20:58:00,45.0,45.0,29.51,NNW,337,0.0,0.0,99,0.00,,,0.57,Rainwise IP-100,2013-04-11 00:58:00,
2013-04-10 21:03:00,44.9,45.0,29.51,NNW,337,0.0,0.0,99,0.06,,,0.58,Rainwise IP-100,2013-04-11 01:03:00,
2013-04-10 21:08:00,44.9,45.0,29.51,NNW,337,3.0,3.3,99,0.06,,,0.58,Rainwise IP-100,2013-04-11 01:08:00,
2013-04-10 21:13:00,44.8,45.0,29.51,NNW,337,4.2,5.1,99,0.00,,,0.58,Rainwise IP-100,2013-04-11 01:13:00,
2013-04-10 21:18:00,44.6,45.0,29.50,NNE,22,3.5,6.1,99,0.00,,,0.58,Rainwise IP-100,2013-04-11 01:18:00,
2013-04-10 21:23:00,44.5,45.0,29.50,NE,45,0.0,8.2,99,0.00,,,0.58,Rainwise IP-100,2013-04-11 01:23:00,
2013-04-10 21:28:00,44.5,45.0,29.49,NNE,22,3.3,6.5,99,0.00,,,0.58,Rainwise IP-100,2013-04-11 01:28:00,
2013-04-10 21:33:00,44.4,44.0,29.50,NNW,337,6.8,9.3,99,0.00,,,0.58,Rainwise IP-100,2013-04-11 01:33:00,
2013-04-10 21:38:00,44.3,44.0,29.50,NNW,337,6.5,8.9,99,0.00,,,0.58,Rainwise IP-100,2013-04-11 01:38:00,
2013-04-10 21:43:00,44.2,44.0,29.51,NNW,337,4.7,10.5,99,0.06,,,0.59,Rainwise IP-100,2013-04-11 01:43:00,
2013-04-10 21:48:00,44.1,44.0,29.51,North,360,2.3,6.8,99,0.06,,,0.59,Rainwise IP-100,2013-04-11 01:48:00,
2013-04-10 21:53:00,44.0,44.0,29.51,North,360,1.9,6.8,99,0.06,,,0.60,Rainwise IP-100,2013-04-11 01:53:00,
2013-04-10 21:58:00,44.0,44.0,29.50,NNW,337,6.8,7.7,99,0.12,,,0.61,Rainwise IP-100,2013-04-11 01:58:00,
2013-04-10 22:04:00,43.9,44.0,29.50,NNW,337,3.3,7.9,99,0.06,,,0.62,Rainwise IP-100,2013-04-11 02:04:00,
2013-04-10 22:09:00,43.8,44.0,29.49,NE,45,2.3,8.2,99,0.06,,,0.62,Rainwise IP-100,2013-04-11 02:09:00,
2013-04-10 22:14:00,43.8,44.0,29.49,NNE,22,1.9,3.3,99,0.00,,,0.62,Rainwise IP-100,2013-04-11 02:14:00,
2013-04-10 22:19:00,43.8,44.0,29.49,North,360,0.0,7.9,99,0.00,,,0.62,Rainwise IP-100,2013-04-11 02:19:00,
2013-04-10 22:24:00,43.8,44.0,29.50,North,360,1.2,3.5,99,0.00,,,0.62,Rainwise IP-100,2013-04-11 02:24:00,
2013-04-10 22:29:00,43.8,44.0,29.49,North,360,0.0,1.9,99,0.00,,,0.62,Rainwise IP-100,2013-04-11 02:29:00,
2013-04-10 22:34:00,43.7,44.0,29.49,North,360,0.0,1.2,99,0.00,,,0.62,Rainwise IP-100,2013-04-11 02:34:00,
2013-04-10 22:39:00,43.7,44.0,29.49,North,360,0.0,1.4,99,0.00,,,0.62,Rainwise IP-100,2013-04-11 02:39:00,
2013-04-10 22:44:00,43.7,44.0,29.49,North,360,0.0,0.0,99,0.00,,,0.62,Rainwise IP-100,2013-04-11 02:44:00,
2013-04-10 22:49:00,43.7,44.0,29.50,North,360,1.2,3.0,99,0.00,,,0.62,Rainwise IP-100,2013-04-11 02:49:00,
2013-04-10 22:54:00,43.7,44.0,29.50,North,360,2.6,4.2,99,0.00,,,0.62,Rainwise IP-100,2013-04-11 02:54:00,
2013-04-10 22:59:00,43.6,44.0,29.50,NNE,22,3.0,4.0,99,0.00,,,0.62,Rainwise IP-100,2013-04-11 02:59:00,
2013-04-10 23:04:00,43.6,44.0,29.50,NNE,22,0.0,7.9,99,0.00,,,0.62,Rainwise IP-100,2013-04-11 03:04:00,
2013-04-10 23:09:00,43.6,44.0,29.50,NNE,22,0.0,6.1,99,0.00,,,0.62,Rainwise IP-100,2013-04-11 03:09:00,
2013-04-10 23:15:00,43.5,44.0,29.50,NNE,22,0.0,5.1,99,0.00,,,0.62,Rainwise IP-100,2013-04-11 03:15:00,
2013-04-10 23:20:00,43.5,44.0,29.50,NNE,22,0.0,0.0,99,0.00,,,0.62,Rainwise IP-100,2013-04-11 03:20:00,
2013-04-10 23:25:00,43.5,44.0,29.51,NNE,22,1.4,3.5,99,0.00,,,0.62,Rainwise IP-100,2013-04-11 03:25:00,
2013-04-10 23:30:00,43.5,44.0,29.50,NNE,22,0.0,2.8,99,0.00,,,0.62,Rainwise IP-100,2013-04-11 03:30:00,
2013-04-10 23:35:00,43.4,43.0,29.51,NNE,22,0.0,0.0,99,0.00,,,0.62,Rainwise IP-100,2013-04-11 03:35:00,
2013-04-10 23:40:00,43.4,43.0,29.50,NNE,22,0.0,0.0,99,0.00,,,0.62,Rainwise IP-100,2013-04-11 03:40:00,
2013-04-10 23:45:00,43.3,43.0,29.50,NNE,22,0.0,0.0,99,0.00,,,0.62,Rainwise IP-100,2013-04-11 03:45:00,
2013-04-10 23:50:00,43.3,43.0,29.50,NNE,22,0.0,1.2,99,0.00,,,0.62,Rainwise IP-100,2013-04-11 03:50:00,
2013-04-10 23:55:00,43.2,43.0,29.50,NNE,22,0.0,0.0,99,0.00,,,0.62,Rainwise IP-100,2013-04-11 03:55:00,